Theta_e
301 293 289 294 295 295 294 293 289 301 299 300 302 300 302 303 306 304 304 303 302 301 301 302 303 306 309 309 311 316 312 310 306 303 302 300 298 300 301 301 302 302 301 301
294 289 294 297 297 294 293 287 286 291 297 296 302 297 302 301 303 304 306 306 304 300 301 301 303 305 307 301 302 306 312 310 308 306 303 301 300 300 300 300 299 300 299 299
289 292 297 294 293 292 292 286 286 286 291 295 298 293 294 297 301 302 304 304 303 302 300 298 299 302 303 298 299 300 302 303 301 300 300 299 300 299 298 298 297 298 298 298
290 294 293 293 290 293 289 295 292 288 286 285 295 288 292 294 294 295 300 301 300 300 300 298 298 299 298 296 297 298 298 299 300 300 300 302 300 296 296 296 296 297 297 296
288 290 291 290 291 294 292 295 292 291 286 285 286 287 296 296 292 294 297 299 298 295 295 295 295 296 294 296 296 296 297 297 299 301 302 300 297 297 297 296 296 296 296 296
291 296 294 292 295 295 297 294 292 291 287 282 287 285 290 291 295 298 300 299 296 294 295 295 295 295 293 295 295 296 295 296 298 299 299 297 296 296 296 296 295 295 295 295
288 290 294 295 291 293 292 290 283 281 280 280 290 284 288 297 300 300 298 297 296 295 294 293 292 294 293 293 293 294 294 293 295 296 296 296 296 296 295 295 294 294 293 293
282 280 290 294 291 287 289 290 283 277 280 283 287 284 290 297 298 303 300 298 296 295 294 291 292 292 293 293 294 294 293 292 292 293 293 294 294 294 293 293 293 293 292 291
281 282 292 294 294 292 288 286 292 284 284 282 286 290 294 293 296 298 295 294 292 292 291 291 293 293 293 292 292 292 291 291 291 291 292 292 292 292 291 291 292 292 292 290
285 280 289 292 294 294 291 293 284 285 277 276 282 286 287 289 294 296 295 294 294 293 292 292 292 293 292 291 291 291 290 290 290 290 290 290 290 290 290 290 290 290 290 290
288 285 285 290 288 287 288 287 289 289 286 280 278 284 291 294 296 295 296 297 296 293 292 291 291 291 291 291 290 290 289 288 288 289 289 289 288 289 289 289 289 289 289 288
290 286 281 284 291 292 291 288 289 283 282 285 283 285 288 289 294 297 296 296 295 293 292 291 291 290 290 289 289 289 289 288 289 289 288 288 287 288 287 287 287 287 287 287
289 284 279 281 286 291 288 290 291 290 289 284 283 285 288 288 290 296 295 295 294 293 291 291 290 289 289 289 289 288 288 288 288 288 288 287 287 287 287 286 286 286 285 285
291 286 282 278 282 286 285 288 290 289 284 285 286 287 288 288 289 292 293 293 292 291 290 289 288 289 289 289 288 288 288 288 288 288 288 287 287 287 286 286 285 285 284 284
286 281 284 284 285 286 286 287 288 287 288 285 287 288 290 290 290 292 293 291 290 289 288 288 288 288 289 288 288 289 289 288 288 287 287 287 286 286 286 285 284 284 283 283
286 281 282 281 284 285 284 286 288 289 289 289 289 288 290 290 292 291 290 290 289 289 288 289 289 289 288 288 288 288 288 288 288 287 286 286 285 284 284 284 283 283 282 282
281 281 281 279 282 283 280 284 285 289 291 291 286 291 288 287 289 290 290 290 289 289 289 289 289 288 288 288 289 288 288 288 287 286 286 285 284 283 283 283 283 282 281 281
279 280 281 279 280 274 282 284 287 289 291 293 293 292 290 289 289 291 293 291 290 290 290 289 289 288 289 290 289 289 288 287 286 285 285 284 283 282 282 282 282 282 282 281
283 281 279 277 278 282 281 282 285 287 288 293 292 290 288 288 287 287 291 293 292 292 291 291 291 290 290 289 288 287 286 286 285 284 284 283 282 281 281 281 281 281 281 281
282 282 280 278 276 275 280 285 286 286 283 294 294 292 288 288 287 290 290 292 292 292 292 290 290 290 289 288 287 285 284 283 283 283 283 283 282 282 281 281 281 281 281 280
278 280 278 279 277 282 283 286 286 281 282 287 293 292 289 288 291 289 290 292 293 291 290 290 289 288 288 287 286 284 283 282 284 283 282 282 281 281 281 281 281 280 279 279
278 278 279 275 275 277 283 283 285 286 286 285 289 291 290 290 288 288 290 291 290 289 289 288 287 287 286 285 284 283 283 284 284 282 281 280 279 280 281 279 279 278 278 277
275 280 280 280 282 284 284 284 288 286 285 286 287 290 291 289 288 287 288 289 289 289 288 288 288 286 285 284 285 284 284 283 282 280 278 278 278 279 279 279 278 278 277 276
277 280 278 279 284 283 284 285 286 287 286 287 287 287 289 289 288 286 287 287 287 286 286 285 284 284 283 283 282 283 283 282 279 279 278 278 277 278 278 279 279 279 278 277
280 278 278 278 282 283 285 285 288 287 286 285 285 286 288 288 286 286 285 285 285 285 284 284 284 284 283 282 281 280 280 278 279 278 278 279 280 278 279 278 278 277 278 279
279 278 277 279 284 283 284 284 287 286 285 285 285 284 284 286 286 285 285 285 285 284 283 282 281 281 281 281 280 279 279 278 278 279 280 280 280 280 279 278 278 280 280 279
Wind_Speed
13 7 17 17 20 11 6 8 8 5 3 15 18 12 16 13 13 13 13 12 10 9 8 6 4 4 5 7 6 4 10 11 9 8 7 6 5 6 7 8 10 10 9 10
13 16 14 10 13 17 14 3 1 7 12 8 19 14 14 12 11 11 16 15 13 10 9 7 6 5 6 7 6 6 8 9 6 5 7 5 6 7 8 8 9 10 10 11
20 3 11 15 13 20 17 6 4 1 10 16 10 7 13 8 8 7 11 7 11 12 11 8 6 6 8 8 6 7 7 8 8 9 7 8 9 7 7 7 7 8 9 9
14 18 3 12 17 16 18 16 10 4 2 3 9 10 16 15 15 10 10 13 14 13 11 9 9 8 8 8 7 7 8 8 6 7 7 8 7 8 7 7 6 7 9 9
9 11 11 16 16 16 10 16 14 10 2 4 3 7 13 18 15 20 18 16 15 12 9 9 8 7 9 8 9 8 6 7 5 5 8 7 9 8 7 7 8 7 7 9
16 8 8 14 9 10 6 10 12 13 4 6 8 3 8 18 25 20 19 19 15 16 11 8 8 8 8 6 10 8 9 8 8 9 10 11 10 9 7 6 6 5 5 5
12 15 3 5 7 5 4 8 5 6 6 6 4 7 5 12 7 18 20 18 16 14 14 11 10 13 12 11 11 7 9 10 9 10 11 10 10 9 8 6 5 5 4 4
9 7 17 12 14 6 17 12 3 3 4 2 6 4 1 3 6 14 18 15 16 16 14 13 12 11 8 11 12 12 11 12 10 10 11 9 9 5 6 5 5 4 5 4
7 8 8 7 9 11 11 11 4 2 2 1 1 3 5 4 7 13 18 17 16 15 12 11 12 12 12 10 10 12 12 10 9 10 8 9 7 8 7 6 6 4 5 4
8 7 9 10 4 10 7 7 6 3 5 4 6 5 4 10 14 18 21 20 17 14 14 14 12 12 10 9 9 8 8 10 9 8 7 8 8 7 6 5 5 5 4 4
11 7 2 6 11 12 9 10 7 4 3 5 4 4 4 9 15 17 17 20 21 20 19 17 14 13 12 10 9 9 9 9 9 7 8 8 7 6 5 4 4 4 4 3
18 2 8 9 4 2 5 9 14 7 5 1 3 2 2 3 2 14 14 15 17 15 15 16 15 15 14 12 11 9 8 8 7 7 7 7 6 5 5 4 4 3 3 3
12 5 4 3 1 5 7 11 10 10 3 5 2 2 1 0 4 6 13 13 14 17 17 16 14 13 12 12 11 10 8 8 7 7 7 6 6 5 4 4 4 3 3 3
6 3 6 3 6 4 10 14 11 13 5 4 6 1 4 3 7 10 12 14 14 15 17 16 14 13 12 11 11 10 9 8 8 7 7 6 5 5 4 4 3 3 3 3
4 4 5 5 5 5 6 9 15 13 14 8 1 6 2 6 8 9 11 13 14 16 16 15 14 13 12 11 12 10 10 9 8 7 6 6 5 5 4 4 3 3 4 4
5 2 2 4 2 2 3 7 12 15 14 12 4 4 3 4 6 10 12 13 15 16 16 16 15 14 14 12 11 10 10 9 8 7 7 6 5 5 4 4 4 5 5 5
7 5 3 1 1 3 6 10 16 17 15 15 12 3 5 2 5 9 11 13 14 15 16 16 16 15 12 12 11 11 10 9 8 7 6 6 6 6 5 5 5 6 6 5
5 5 2 2 1 6 1 3 2 13 11 12 7 2 3 2 2 5 10 14 15 16 16 15 13 12 11 11 9 9 9 9 8 7 6 6 6 6 5 5 6 5 5 6
5 3 2 3 4 5 2 1 1 6 9 12 12 5 5 4 3 6 10 12 13 14 14 14 13 13 12 12 11 10 9 8 7 7 8 7 7 6 6 6 6 6 5 4
3 3 4 1 4 2 4 1 1 3 4 11 13 9 7 7 3 3 9 10 9 11 12 14 13 11 13 11 11 10 8 7 8 8 8 6 6 6 7 7 5 3 3 6
2 2 3 2 4 3 2 2 1 4 3 7 5 9 11 5 3 3 1 8 9 9 10 10 10 11 11 10 10 9 8 10 8 6 5 6 6 6 4 3 3 4 5 5
3 2 2 2 3 3 3 2 3 3 0 2 2 3 5 3 3 3 3 7 9 11 10 10 10 8 8 9 10 8 10 6 6 6 5 4 4 4 4 5 4 3 3 4
3 3 2 5 1 0 4 1 2 2 3 2 2 1 4 5 1 4 6 7 8 10 9 7 10 9 7 8 9 9 5 6 5 5 5 5 5 4 4 4 4 4 5 5
5 5 4 3 1 9 11 6 7 3 4 3 3 3 4 4 3 3 5 5 5 6 7 5 8 8 8 6 5 4 6 5 6 5 4 4 4 4 4 4 5 6 6 6
2 6 4 7 12 9 11 11 8 8 5 2 1 1 4 2 3 4 4 5 5 5 5 6 7 7 6 6 5 5 5 5 4 3 3 5 5 6 6 7 7 7 7 7
9 9 8 6 2 2 2 2 4 8 8 6 4 2 3 3 5 5 5 5 5 6 5 5 3 4 5 6 4 4 5 6 5 6 5 6 5 6 6 5 6 15 16 13
Wind_Direction
203 206 213 220 210 201 215 265 343 201 70 200 197 162 170 168 187 163 158 170 170 157 144 128 117 105 92 62 69 70 120 125 127 123 116 98 97 101 90 75 60 58 52 56
226 232 223 229 220 203 237 240 316 303 323 289 193 171 167 174 195 170 179 178 172 158 152 128 119 104 89 71 55 58 112 121 119 112 116 118 117 92 88 81 66 54 54 49
235 191 208 203 230 213 212 199 134 68 339 298 191 174 177 188 190 191 183 176 169 180 157 138 130 122 106 81 69 70 83 93 93 101 112 116 117 117 104 79 70 55 54 55
258 238 225 202 224 234 226 198 193 271 257 242 260 215 197 170 186 189 197 180 185 167 150 141 141 133 118 104 91 85 84 99 113 135 153 147 133 115 98 94 84 72 56 55
243 231 226 216 215 238 229 161 172 178 220 318 223 280 185 169 196 190 188 192 182 146 139 151 140 127 119 115 103 89 90 90 111 113 115 106 105 108 107 105 101 87 74 64
267 288 240 238 218 234 295 175 182 164 153 241 196 237 175 180 204 185 179 189 175 146 157 161 149 128 105 101 103 117 109 93 92 101 97 101 105 114 119 116 106 96 79 71
247 232 196 208 176 224 235 192 167 192 174 226 183 196 270 222 192 188 179 179 167 158 159 165 169 150 144 138 121 129 117 114 106 99 91 96 103 105 107 104 94 103 94 76
238 220 206 192 213 200 215 221 174 207 179 123 117 242 220 306 35 186 166 165 165 165 164 170 176 114 145 143 143 139 128 116 111 102 102 97 96 105 93 85 93 88 85 75
238 245 261 169 195 197 184 223 189 99 42 23 194 222 220 214 148 151 152 159 164 161 161 166 159 150 160 156 143 137 127 115 115 106 111 106 105 96 100 93 88 86 90 96
261 281 186 199 201 231 222 187 214 247 186 234 207 219 230 197 187 171 171 183 172 159 167 169 179 155 150 142 132 124 122 116 116 119 117 107 102 103 104 98 96 101 104 104
239 244 223 198 214 202 202 199 223 184 258 237 228 228 22 190 190 188 177 180 174 170 169 163 161 160 149 147 128 126 128 128 131 128 114 111 113 113 111 116 116 112 110 105
219 308 253 242 61 329 276 218 221 201 184 222 316 146 35 12 299 181 177 172 167 164 161 161 163 157 155 143 144 150 143 137 137 130 122 127 129 136 136 136 124 132 123 117
185 202 221 219 220 242 219 218 228 233 344 196 200 131 33 82 153 169 166 168 163 163 161 161 157 156 155 152 155 148 150 142 141 138 140 148 147 154 152 145 133 160 155 162
342 245 240 291 29 329 205 216 224 222 232 192 233 73 178 170 163 164 163 164 159 166 163 161 165 166 159 155 155 157 158 151 156 159 164 161 165 169 171 153 168 170 194 199
9 262 242 276 287 305 293 277 217 224 229 226 205 232 330 152 186 172 161 159 165 168 167 171 166 161 162 162 163 160 159 161 164 169 176 179 173 179 169 174 180 190 211 220
344 11 294 256 209 183 321 303 281 233 214 242 259 266 13 14 120 160 170 172 178 182 181 178 168 163 169 167 163 163 162 167 170 183 189 176 180 185 188 193 200 210 217 221
332 329 316 133 343 285 256 236 230 242 225 217 212 195 159 155 191 182 180 184 187 187 184 180 174 169 166 167 166 168 168 164 178 186 184 183 191 195 198 200 206 219 225 231
302 320 309 324 198 224 45 355 328 226 246 228 226 166 132 100 146 190 188 186 189 186 182 175 169 166 165 158 160 160 163 166 179 186 187 194 192 198 197 205 219 229 228 233
230 289 268 275 239 321 231 178 153 188 232 217 216 170 134 132 158 235 206 199 192 184 178 173 170 166 163 162 160 158 162 170 176 190 199 195 192 199 201 215 220 223 227 236
243 277 273 240 273 245 42 66 54 270 265 177 196 180 159 165 201 99 190 187 182 175 170 165 165 157 161 164 158 155 163 168 196 196 201 190 190 201 207 211 214 210 230 249
263 218 266 272 276 262 97 111 340 193 39 338 215 164 160 182 17 11 236 171 170 161 155 148 153 158 162 147 149 162 166 196 201 181 175 181 192 198 208 200 206 202 222 240
281 272 215 94 267 298 158 127 227 19 122 321 241 169 173 150 56 15 143 148 145 145 147 150 150 151 141 149 155 166 197 186 174 170 180 189 188 189 190 196 197 204 229 248
262 242 313 220 312 313 220 219 311 319 321 22 340 193 220 197 118 140 159 154 160 159 153 153 155 140 140 153 169 184 200 158 158 169 194 183 182 186 189 203 217 225 220 236
224 191 242 334 194 234 241 233 231 221 268 344 329 308 227 210 126 125 143 137 134 134 145 125 127 144 163 171 178 176 139 149 161 192 190 174 189 210 205 215 223 224 223 223
350 160 212 258 275 259 236 229 227 215 212 248 5 304 238 202 149 148 141 134 129 128 127 149 160 167 167 163 184 164 165 141 174 195 187 208 209 207 219 216 218 219 227 225
188 204 201 231 257 317 29 71 200 199 202 197 199 210 221 200 174 155 155 151 146 154 143 145 129 126 163 180 181 165 174 172 181 217 216 218 212 213 213 230 236 234 242 238